Regional Weather Roundup
Issued by NWS

Home | Current Version | Previous Version | Graphics & Text | Print | Product List | Glossary On
Versions: 1 2 3 4 5 6 7 8 9 10 11 12 13 14 15 16 17 18 19 20 21 22 23 24 25 26 27 28 29 30 31 32 33 34 35 36 37 38 39 40 41 42 43 44 45 46 47 48 49 50
000
ASUS45 KBOI 281210
RWRID
WEATHER ROUNDUP FOR IDAHO
NATIONAL WEATHER SERVICE BOISE ID
600 AM MDT SAT MAR 28 2015

NOTE: "FAIR" INDICATES FEW OR NO CLOUDS BELOW 12000 FEET
WITH NO SIGNIFICANT WEATHER AND/OR OBSTRUCTIONS TO VISIBILITY

IDZ012-014-281300-
SOUTHWEST IDAHO


CITY           SKY/WX    TMP DP  RH WIND       PRES   REMARKS
BOISE          MOCLDY    51  41  68 CALM      30.02R
CALDWELL       MOCLDY    55  37  50 W8        30.02R
MOUNTAIN HOME  CLOUDY    48  39  70 E3        30.01R
$$

IDZ016-017-281300-
SOUTHCENTRAL IDAHO


CITY           SKY/WX    TMP DP  RH WIND       PRES   REMARKS
BURLEY         CLEAR     52  29  41 SW10      30.01R
JEROME         CLEAR     50  31  48 S8        30.03R
TWIN FALLS     CLEAR     55  29  36 S18       30.03R
$$

IDZ019>023-281300-
SOUTHEAST IDAHO


CITY           SKY/WX    TMP DP  RH WIND       PRES   REMARKS
IDAHO FALLS    PTCLDY    36  30  79 CALM      30.04F
POCATELLO      CLEAR     59  28  30 S12       30.01F
REXBURG        PTCLDY    36  31  82 NE5       30.04F WCI  32
$$

IDZ006-010-011-018-031-032-281300-
CENTRAL IDAHO MOUNTAINS


CITY           SKY/WX    TMP DP  RH WIND       PRES   REMARKS
MCCALL         CLOUDY    51  35  54 SW16G23   29.96S
HAILEY         CLEAR     39  32  75 NW12      30.07S WCI  32
STANLEY          N/A     34  29  82 VRB3      30.07R
SALMON         PTCLDY    36  30  80 N3        29.91S
CHALLIS        PTCLDY    41  31  67 CALM      29.97S
$$

IDZ002-004-006-007-026-281300-
NORTHERN IDAHO


CITY           SKY/WX    TMP DP  RH WIND       PRES   REMARKS
LEWISTON       CLOUDY    53  40  61 W9        30.03R
LOWELL           N/A     50  47  89 VRB3      30.02R
COEUR D`ALENE  CLOUDY    48  43  81 SW12G20   29.90R
MULLAN PASS    LGT RAIN  34  34 100 VRB7G18   29.90R VSB 3/4 WCI  28
$$


USA.gov is the U.S. government's official web portal to all federal, state and local government web resources and services.